| time (UTC) | temp C | wind direction | speed KPH | gust KPH | rain 1hr cm | rain 24hr cm | rain mn cm | humidity % | barometer mb |
| 20260906193034 | 26 | 234 | 0.0 | 11.3 | 0.00 | 0.00 | 0.00 | 37 | 1006.7 |
| 20260906191533 | 26 | 355 | 1.6 | 8.0 | 0.00 | 0.00 | 0.00 | 38 | 1006.9 |
| 20260906190030 | 26 | 234 | 1.6 | 8.0 | 0.00 | 0.00 | 0.00 | 40 | 1006.8 |
| 20260906184528 | 25 | 212 | 0.0 | 11.3 | 0.00 | 0.00 | 0.00 | 41 | 1006.7 |
| 20260906183035 | 25 | 185 | 1.6 | 6.4 | 0.00 | 0.00 | 0.00 | 40 | 1006.8 |
| 20260906181535 | 25 | 129 | 1.6 | 11.3 | 0.00 | 0.00 | 0.00 | 41 | 1006.8 |
| 20260906180027 | 24 | 317 | 3.2 | 12.9 | 0.00 | 0.00 | 0.00 | 43 | 1007.0 |
| 20260906174517 | 23 | 213 | 3.2 | 9.7 | 0.00 | 0.00 | 0.00 | 45 | 1006.9 |
| 20260906173013 | 22 | 205 | 1.6 | 9.7 | 0.00 | 0.00 | 0.00 | 47 | 1006.9 |
| 20260906171509 | 21 | 140 | 0.0 | 4.8 | 0.00 | 0.00 | 0.00 | 53 | 1007.0 |
| 20260906170006 | 20 | 159 | 1.6 | 4.8 | 0.00 | 0.00 | 0.00 | 57 | 1007.1 |
| 20260906164600 | 17 | 236 | 3.2 | 8.0 | 0.00 | 0.00 | 0.00 | 68 | 1007.1 |
| 20260906163055 | 15 | 319 | 0.0 | 1.6 | 0.00 | 0.00 | 0.00 | 82 | 1007.0 |
| 20260906161613 | 13 | 319 | 0.0 | 0.0 | 0.00 | 0.00 | 0.00 | 85 | 1007.2 |
| 20260906160049 | 12 | 319 | 0.0 | 0.0 | 0.00 | 0.00 | 0.00 | 86 | 1007.4 |
| 20260906154549 | 12 | 319 | 0.0 | 0.0 | 0.00 | 0.00 | 0.00 | 86 | 1007.5 |
| 20260906153106 | 11 | 319 | 0.0 | 0.0 | 0.00 | 0.00 | 0.00 | 86 | 1007.5 |
| 20260906151546 | 11 | 319 | 0.0 | 0.0 | 0.00 | 0.00 | 0.00 | 86 | 1007.4 |
| 20260906150045 | 10 | 319 | 0.0 | 0.0 | 0.00 | 0.00 | 0.00 | 85 | 1007.4 |
| 20260906144543 | 10 | 319 | 0.0 | 0.0 | 0.00 | 0.00 | 0.00 | 85 | 1007.3 |
| 20260906143042 | 10 | 319 | 0.0 | 0.0 | 0.00 | 0.00 | 0.00 | 85 | 1007.1 |
| 20260906141555 | 10 | 319 | 0.0 | 0.0 | 0.00 | 0.00 | 0.00 | 86 | 1007.1 |
| 20260906140039 | 10 | 319 | 0.0 | 0.0 | 0.00 | 0.00 | 0.00 | 85 | 1006.9 |
| 20260906134537 | 10 | 319 | 0.0 | 0.0 | 0.00 | 0.00 | 0.00 | 85 | 1006.8 |
| 20260906133043 | 10 | 319 | 0.0 | 0.0 | 0.00 | 0.00 | 0.00 | 84 | 1006.6 |
| 20260906131548 | 10 | 319 | 0.0 | 0.0 | 0.00 | 0.00 | 0.00 | 84 | 1006.4 |
| 20260906130044 | 10 | 319 | 0.0 | 0.0 | 0.00 | 0.00 | 0.00 | 84 | 1006.3 |
| 20260906124534 | 10 | 319 | 0.0 | 0.0 | 0.00 | 0.00 | 0.00 | 83 | 1006.2 |
| 20260906123036 | 10 | 319 | 0.0 | 0.0 | 0.00 | 0.00 | 0.00 | 83 | 1006.1 |
| 20260906121536 | 10 | 319 | 0.0 | 0.0 | 0.00 | 0.00 | 0.00 | 82 | 1006.1 |
| 20260906120030 | 10 | 319 | 0.0 | 0.0 | 0.00 | 0.00 | 0.00 | 82 | 1006.2 |
| 20260906114532 | 10 | 319 | 0.0 | 0.0 | 0.00 | 0.00 | 0.00 | 82 | 1006.2 |
| 20260906113027 | 10 | 319 | 0.0 | 0.0 | 0.00 | 0.00 | 0.00 | 81 | 1006.2 |
| 20260906111530 | 10 | 319 | 0.0 | 0.0 | 0.00 | 0.00 | 0.00 | 81 | 1006.1 |
| 20260906110025 | 10 | 319 | 0.0 | 0.0 | 0.00 | 0.00 | 0.00 | 80 | 1006.1 |
| 20260906104522 | 11 | 319 | 0.0 | 0.0 | 0.00 | 0.00 | 0.00 | 80 | 1006.2 |
| 20260906103021 | 11 | 319 | 0.0 | 0.0 | 0.00 | 0.00 | 0.00 | 79 | 1006.2 |
| 20260906101523 | 11 | 319 | 0.0 | 0.0 | 0.00 | 0.00 | 0.00 | 79 | 1006.2 |
| 20260906100028 | 11 | 319 | 0.0 | 0.0 | 0.00 | 0.00 | 0.00 | 78 | 1006.2 |
| 20260906094517 | 11 | 319 | 0.0 | 0.0 | 0.00 | 0.00 | 0.00 | 77 | 1006.3 |
| 20260906093016 | 11 | 319 | 0.0 | 0.0 | 0.00 | 0.00 | 0.00 | 77 | 1006.3 |
| 20260906091513 | 11 | 319 | 0.0 | 0.0 | 0.00 | 0.00 | 0.00 | 76 | 1006.3 |
| 20260906090012 | 11 | 319 | 0.0 | 0.0 | 0.00 | 0.00 | 0.00 | 76 | 1006.4 |
| 20260906084511 | 12 | 319 | 0.0 | 0.0 | 0.00 | 0.00 | 0.00 | 75 | 1006.6 |
| 20260906083009 | 12 | 319 | 0.0 | 0.0 | 0.00 | 0.00 | 0.00 | 74 | 1006.6 |
| 20260906081508 | 12 | 319 | 0.0 | 0.0 | 0.00 | 0.00 | 0.00 | 74 | 1006.6 |
| 20260906080006 | 12 | 319 | 0.0 | 0.0 | 0.00 | 0.00 | 0.00 | 73 | 1006.6 |
| 20260906074503 | 12 | 319 | 0.0 | 0.0 | 0.00 | 0.00 | 0.00 | 72 | 1006.5 |
| 20260906073101 | 13 | 319 | 0.0 | 0.0 | 0.00 | 0.00 | 0.00 | 72 | 1006.4 |
| 20260906071559 | 13 | 319 | 0.0 | 0.0 | 0.00 | 0.00 | 0.00 | 71 | 1006.4 |
| 20260906070055 | 13 | 319 | 0.0 | 0.0 | 0.00 | 0.00 | 0.00 | 70 | 1006.4 |
| 20260906064554 | 13 | 319 | 0.0 | 0.0 | 0.00 | 0.00 | 0.00 | 69 | 1006.7 |
| 20260906063054 | 14 | 319 | 0.0 | 0.0 | 0.00 | 0.00 | 0.00 | 68 | 1006.6 |
| 20260906061554 | 14 | 319 | 0.0 | 0.0 | 0.00 | 0.00 | 0.00 | 68 | 1006.6 |
| 20260906060121 | 15 | 319 | 0.0 | 4.8 | 0.00 | 0.00 | 0.00 | 68 | 1006.5 |
| 20260906054606 | 15 | 231 | 0.0 | 4.8 | 0.00 | 0.00 | 0.00 | 67 | 1006.5 |
| 20260906053052 | 15 | 231 | 0.0 | 4.8 | 0.00 | 0.00 | 0.00 | 66 | 1006.6 |
| 20260906051551 | 15 | 231 | 1.6 | 4.8 | 0.00 | 0.00 | 0.00 | 66 | 1006.4 |
| 20260906050051 | 15 | 231 | 0.0 | 3.2 | 0.00 | 0.00 | 0.00 | 66 | 1006.4 |
| 20260906044550 | 16 | 231 | 0.0 | 3.2 | 0.00 | 0.00 | 0.00 | 65 | 1006.3 |
| 20260906043051 | 16 | 231 | 0.0 | 1.6 | 0.00 | 0.00 | 0.00 | 64 | 1006.2 |
| 20260906041549 | 16 | 231 | 0.0 | 0.0 | 0.00 | 0.00 | 0.00 | 63 | 1006.2 |
| 20260906040048 | 17 | 231 | 0.0 | 0.0 | 0.00 | 0.00 | 0.00 | 62 | 1006.1 |
| 20260906034559 | 17 | 231 | 0.0 | 0.0 | 0.00 | 0.00 | 0.00 | 61 | 1006.1 |
| 20260906033047 | 17 | 231 | 0.0 | 0.0 | 0.00 | 0.00 | 0.00 | 60 | 1006.0 |
| 20260906031549 | 18 | 231 | 0.0 | 0.0 | 0.00 | 0.00 | 0.00 | 58 | 1005.8 |
| 20260906030046 | 19 | 231 | 0.0 | 0.0 | 0.00 | 0.00 | 0.00 | 56 | 1005.8 |
| 20260906024552 | 20 | 231 | 0.0 | 0.0 | 0.00 | 0.00 | 0.00 | 54 | 1005.6 |
| 20260906023146 | 20 | 231 | 0.0 | 1.6 | 0.00 | 0.00 | 0.00 | 53 | 1005.7 |
| 20260906021545 | 21 | 231 | 0.0 | 0.0 | 0.00 | 0.00 | 0.00 | 50 | 1005.7 |
| 20260906020043 | 22 | 231 | 0.0 | 0.0 | 0.00 | 0.00 | 0.00 | 46 | 1005.7 |
| 20260906014548 | 23 | 231 | 0.0 | 6.4 | 0.00 | 0.00 | 0.00 | 43 | 1005.7 |
| 20260906013041 | 23 | 319 | 0.0 | 11.3 | 0.00 | 0.00 | 0.00 | 42 | 1005.7 |
| 20260906011539 | 24 | 288 | 0.0 | 6.4 | 0.00 | 0.00 | 0.00 | 42 | 1005.7 |
| 20260906010043 | 25 | 187 | 0.0 | 4.8 | 0.00 | 0.00 | 0.00 | 40 | 1005.7 |
| 20260906004541 | 25 | 186 | 0.0 | 4.8 | 0.00 | 0.00 | 0.00 | 39 | 1005.7 |
| 20260906003034 | 26 | 184 | 1.6 | 6.4 | 0.00 | 0.00 | 0.00 | 38 | 1005.8 |
| 20260906001547 | 26 | 227 | 1.6 | 9.7 | 0.00 | 0.00 | 0.00 | 38 | 1005.8 |
| 20260906000035 | 26 | 86 | 0.0 | 11.3 | 0.00 | 0.00 | 0.00 | 38 | 1005.7 |
| 20260905234532 | 26 | 153 | 1.6 | 8.0 | 0.00 | 0.00 | 0.00 | 37 | 1005.7 |
| 20260905233032 | 26 | 229 | 0.0 | 11.3 | 0.00 | 0.00 | 0.00 | 38 | 1005.7 |
| 20260905231529 | 26 | 236 | 1.6 | 9.7 | 0.00 | 0.00 | 0.00 | 36 | 1005.9 |
| 20260905230033 | 27 | 311 | 1.6 | 8.0 | 0.00 | 0.00 | 0.00 | 36 | 1006.0 |
| 20260905224526 | 26 | 130 | 0.0 | 11.3 | 0.00 | 0.00 | 0.00 | 36 | 1006.2 |
| 20260905223041 | 26 | 42 | 3.2 | 14.5 | 0.00 | 0.00 | 0.00 | 37 | 1006.3 |
| 20260905221524 | 26 | 114 | 3.2 | 14.5 | 0.00 | 0.00 | 0.00 | 37 | 1006.3 |
| 20260905220024 | 26 | 195 | 3.2 | 11.3 | 0.00 | 0.00 | 0.00 | 36 | 1006.3 |
| 20260905214521 | 26 | 223 | 1.6 | 11.3 | 0.00 | 0.00 | 0.00 | 38 | 1006.4 |
| 20260905213021 | 26 | 214 | 3.2 | 9.7 | 0.00 | 0.00 | 0.00 | 37 | 1006.5 |
| 20260905211522 | 26 | 82 | 1.6 | 12.9 | 0.00 | 0.00 | 0.00 | 37 | 1006.7 |
| 20260905210021 | 26 | 94 | 1.6 | 8.0 | 0.00 | 0.00 | 0.00 | 37 | 1006.6 |
| 20260905204515 | 26 | 288 | 1.6 | 9.7 | 0.00 | 0.00 | 0.00 | 37 | 1006.5 |
| 20260905203016 | 26 | 149 | 3.2 | 14.5 | 0.00 | 0.00 | 0.00 | 37 | 1006.8 |
| 20260905201521 | 26 | 296 | 1.6 | 12.9 | 0.00 | 0.00 | 0.00 | 38 | 1006.8 |
| 20260905200009 | 26 | 40 | 1.6 | 9.7 | 0.00 | 0.00 | 0.00 | 39 | 1007.0 |
| 20260905194508 | 26 | 333 | 1.6 | 8.0 | 0.00 | 0.00 | 0.00 | 37 | 1007.0 |